Heubes-Wetterstation in 44289 Dortmund
Heubes-Wetterstation

Messwerte der letzten 60 Minuten im Minuten-Intervall (Wetterstation 44289 Dortmund)

Datum & Uhrzeit Temp. Feucht. Wind-Ø Böen Sekt.  Regen Rate Luftdruck
27.01.2022 - 00:122.6 °C94%8 km/h 13 km/h S-SW0.0 mm 0.0 mm 1027.9 hPa, gleichbleibend
27.01.2022 - 00:112.6 °C94%8 km/h 14 km/h SW0.0 mm 0.0 mm 1027.9 hPa, gleichbleibend
27.01.2022 - 00:102.6 °C94%10 km/h 14 km/h SW0.0 mm 0.0 mm 1027.9 hPa, gleichbleibend
27.01.2022 - 00:092.6 °C94%10 km/h 18 km/h SW0.0 mm 0.0 mm 1027.9 hPa, gleichbleibend
27.01.2022 - 00:082.6 °C94%10 km/h 13 km/h SW0.0 mm 0.0 mm 1028.0 hPa, gleichbleibend
27.01.2022 - 00:072.6 °C94%10 km/h 16 km/h SW0.0 mm 0.0 mm 1028.0 hPa, gleichbleibend
27.01.2022 - 00:062.6 °C94%11 km/h 7 km/h S0.0 mm 0.0 mm 1028.0 hPa, gleichbleibend
27.01.2022 - 00:052.6 °C94%11 km/h 13 km/h S-SW0.0 mm 0.0 mm 1027.9 hPa, gleichbleibend
27.01.2022 - 00:042.6 °C94%11 km/h 11 km/h SW0.0 mm 0.0 mm 1027.9 hPa, gleichbleibend
27.01.2022 - 00:032.6 °C94%11 km/h 18 km/h SW0.0 mm 0.0 mm 1027.9 hPa, gleichbleibend
27.01.2022 - 00:022.6 °C94%11 km/h 18 km/h SW0.0 mm 0.0 mm 1028.0 hPa, gleichbleibend
27.01.2022 - 00:012.6 °C94%11 km/h 16 km/h S-SW0.0 mm 0.0 mm 1028.0 hPa, gleichbleibend
27.01.2022 - 00:002.6 °C94%10 km/h 19 km/h S-SW0.0 mm 0.0 mm 1027.9 hPa, gleichbleibend
26.01.2022 - 23:592.6 °C94%10 km/h 23 km/h SW0.0 mm 0.0 mm 1028.0 hPa, gleichbleibend
26.01.2022 - 23:582.6 °C94%10 km/h 19 km/h S-SW0.0 mm 0.0 mm 1028.0 hPa, gleichbleibend
26.01.2022 - 23:572.6 °C94%10 km/h 18 km/h S-SW0.0 mm 0.0 mm 1027.9 hPa, gleichbleibend
26.01.2022 - 23:562.6 °C94%10 km/h 16 km/h S-SW0.0 mm 0.0 mm 1028.0 hPa, gleichbleibend
26.01.2022 - 23:552.6 °C94%10 km/h 13 km/h S-SW0.0 mm 0.0 mm 1027.9 hPa, gleichbleibend
26.01.2022 - 23:542.6 °C94%10 km/h 18 km/h SW0.0 mm 0.0 mm 1028.0 hPa, gleichbleibend
26.01.2022 - 23:532.6 °C94%10 km/h 13 km/h S-SW0.0 mm 0.0 mm 1028.0 hPa, gleichbleibend
26.01.2022 - 23:522.6 °C94%10 km/h 16 km/h SW0.0 mm 0.0 mm 1028.0 hPa, gleichbleibend
26.01.2022 - 23:512.5 °C94%11 km/h 16 km/h W0.0 mm 0.0 mm 1028.0 hPa, gleichbleibend
26.01.2022 - 23:502.5 °C94%11 km/h 14 km/h SW0.0 mm 0.0 mm 1028.0 hPa, gleichbleibend
26.01.2022 - 23:492.6 °C94%11 km/h 19 km/h S-SW0.0 mm 0.0 mm 1028.1 hPa, gleichbleibend
26.01.2022 - 23:482.5 °C94%11 km/h 14 km/h W-SW0.0 mm 0.0 mm 1028.1 hPa, gleichbleibend
26.01.2022 - 23:472.5 °C94%11 km/h 14 km/h SW0.0 mm 0.0 mm 1028.1 hPa, langsam fallend
26.01.2022 - 23:462.5 °C94%11 km/h 18 km/h SW0.0 mm 0.0 mm 1028.2 hPa, gleichbleibend
26.01.2022 - 23:452.5 °C94%11 km/h 18 km/h SW0.0 mm 0.0 mm 1028.2 hPa, gleichbleibend
26.01.2022 - 23:442.5 °C94%11 km/h 21 km/h W-SW0.0 mm 0.0 mm 1028.2 hPa, gleichbleibend
26.01.2022 - 23:432.5 °C94%11 km/h 23 km/h SW0.0 mm 0.0 mm 1028.2 hPa, gleichbleibend
26.01.2022 - 23:422.5 °C94%11 km/h 18 km/h W-SW0.0 mm 0.0 mm 1028.2 hPa, gleichbleibend
26.01.2022 - 23:412.5 °C94%10 km/h 16 km/h SW0.0 mm 0.0 mm 1028.2 hPa, gleichbleibend
26.01.2022 - 23:402.5 °C94%10 km/h 14 km/h SW0.0 mm 0.0 mm 1028.2 hPa, gleichbleibend
26.01.2022 - 23:392.5 °C94%10 km/h 13 km/h W-SW0.0 mm 0.0 mm 1028.2 hPa, gleichbleibend
26.01.2022 - 23:382.5 °C94%9 km/h 18 km/h W-SW0.0 mm 0.0 mm 1028.2 hPa, gleichbleibend
26.01.2022 - 23:372.5 °C94%8 km/h 16 km/h S-SW0.0 mm 0.0 mm 1028.2 hPa, gleichbleibend
26.01.2022 - 23:362.5 °C94%8 km/h 16 km/h S-SW0.0 mm 0.0 mm 1028.3 hPa, gleichbleibend
26.01.2022 - 23:352.5 °C94%8 km/h 13 km/h SW0.0 mm 0.0 mm 1028.3 hPa, gleichbleibend
26.01.2022 - 23:342.5 °C94%8 km/h 14 km/h SW0.0 mm 0.0 mm 1028.3 hPa, gleichbleibend
26.01.2022 - 23:332.5 °C94%8 km/h 16 km/h W-SW0.0 mm 0.0 mm 1028.3 hPa, gleichbleibend
26.01.2022 - 23:322.4 °C94%10 km/h 11 km/h SW0.0 mm 0.0 mm 1028.3 hPa, gleichbleibend
26.01.2022 - 23:312.5 °C94%10 km/h 13 km/h SW0.0 mm 0.0 mm 1028.3 hPa, gleichbleibend
26.01.2022 - 23:302.5 °C94%10 km/h 11 km/h SW0.0 mm 0.0 mm 1028.3 hPa, langsam fallend
26.01.2022 - 23:292.5 °C94%10 km/h 13 km/h S-SW0.0 mm 0.0 mm 1028.4 hPa, langsam steigend
26.01.2022 - 23:282.4 °C94%10 km/h 11 km/h S-SW0.0 mm 0.0 mm 1028.3 hPa, langsam fallend
26.01.2022 - 23:272.5 °C94%10 km/h 18 km/h SW0.0 mm 0.0 mm 1028.4 hPa, gleichbleibend
26.01.2022 - 23:262.4 °C94%10 km/h 16 km/h SW0.0 mm 0.0 mm 1028.4 hPa, gleichbleibend
26.01.2022 - 23:252.4 °C94%10 km/h 13 km/h SW0.0 mm 0.0 mm 1028.4 hPa, gleichbleibend
26.01.2022 - 23:242.4 °C94%9 km/h 18 km/h SW0.0 mm 0.0 mm 1028.4 hPa, gleichbleibend
26.01.2022 - 23:232.4 °C94%8 km/h 18 km/h SW0.0 mm 0.0 mm 1028.4 hPa, gleichbleibend
26.01.2022 - 23:222.4 °C94%8 km/h 19 km/h SW0.0 mm 0.0 mm 1028.4 hPa, gleichbleibend
26.01.2022 - 23:212.4 °C94%8 km/h 11 km/h W-SW0.0 mm 0.0 mm 1028.4 hPa, gleichbleibend
26.01.2022 - 23:202.4 °C94%8 km/h 11 km/h S0.0 mm 0.0 mm 1028.4 hPa, gleichbleibend
26.01.2022 - 23:192.4 °C94%8 km/h 16 km/h S-SW0.0 mm 0.0 mm 1028.4 hPa, gleichbleibend
26.01.2022 - 23:182.4 °C94%8 km/h 11 km/h S-SW0.0 mm 0.0 mm 1028.4 hPa, gleichbleibend
26.01.2022 - 23:172.4 °C94%8 km/h 14 km/h S0.0 mm 0.0 mm 1028.4 hPa, langsam steigend
26.01.2022 - 23:162.4 °C94%8 km/h 14 km/h SW0.0 mm 0.0 mm 1028.3 hPa, langsam fallend
26.01.2022 - 23:152.4 °C94%8 km/h 13 km/h S-SW0.0 mm 0.0 mm 1028.4 hPa, gleichbleibend
26.01.2022 - 23:142.4 °C94%8 km/h 16 km/h S-SO0.0 mm 0.0 mm 1028.4 hPa, gleichbleibend
26.01.2022 - 23:132.4 °C94%10 km/h 10 km/h S-SW0.0 mm 0.0 mm 1028.4 hPa, gleichbleibend